Torna al catalogo

ICEYE-X42

AttivoScienzaSSO
NORAD 62698·PAYLOAD·🇦🇪 UAE

Lanciato Jan 14, 2025 da Vandenberg Space Force Base

Loading…

Prossimi Passaggi (prossime 24 ore)

TLE

AggiornatoSource: Space-Track

Epoca: Sep 14, 2026, 11:34 UTC

1 62698U 25009CT  26257.48215717  .00001479  00000-0  15210-3 0  9997
2 62698  97.7384 334.1730 0001298 102.6919 257.4445 14.91819002 90601

Traccia ICEYE-X42 in tempo reale con AllMySat

Download on the App Store